Weather in Zubkovo

Russia / Novosibirsk Oblast     53°46′08″N   78°39′14″E
temp.,
°C
wind,
m/s
gust,
m/s
humid.,
%
clouds,
%
prec.,
mm/h
press.,
hPa
HPBL,
m
1 march, mon
mon101:00−6se51096100 0.8 1013420
04:00−4se4797100 2.4 1008338
07:00−3ssw2298100 3.5 100725
10:00−2wsw259899 0.4 1007202
13:000sw49100100 1.2 1006399
16:00+1sw712100100 0.4 1006663
19:000wsw71196100 0.8 1007661
22:00−1wsw5997100 1.0 1008491
2 march, tue
tue201:00−8nw339694 1.2 101147
04:00−12wnw469698 0.1 1013168
07:00−17w349894 0.2 101545
10:00−18w2398100 0.0 101761
13:00−14wsw239192 0.1 1017241
16:00−12sw2491100 0.1 1016343
19:00−13wsw129697 0.2 101620
22:00−14sw119697 0.1 101620
3 march, wed
wed301:00−14sw229693 0.2 101620
04:00−15sw229684 0.1 101634
07:00−15sw229690 0.3 101733
10:00−14sw2496100 0.2 1017159
13:00−11sw479393 0.2 1019426
16:00−12ssw5892100 0.1 1019436
19:00−15ssw51094100 0.1 1020314
22:00−15s61194100 0.0 1020265
4 march, thu
thu401:00−11s71294100 0.2 1019407
04:00−9ssw71394100 0.6 1017464
07:00−9s71393100 1.1 1017433
10:00−8ssw81492100 0.3 1016475
13:00−5ssw91494100 0.6 1015646
16:00−3ssw91493100 0.4 1013752
19:00−3ssw91685100 0.8 1012735
22:00−3ssw91784100 0.0 1011627
5 march, fri
fri501:00−3s81585100 0.0 1010515
04:00−5s71488100 0.0 1008399
07:00−5ssw61195100 1.2 1007410
10:00−2sw71294100 0.8 1008590
13:00−3w8128799 1.1 1011763
16:00−6wsw7118762 0.0 1017725
19:00−8ssw7148850 0.0 1020476
22:00−7ssw91783100 0.0 1018791